Time,TemperatureF,DewpointF,PressureIn,WindDirection,WindDirectionDegrees,WindSpeedMPH,WindSpeedGustMPH,Humidity,HourlyPrecipIn,Conditions,Clouds,dailyrainin,SoftwareType,DateUTC
2013-07-23 00:00:00,68.3,66.2,29.51,ESE,111,0.0,0.0,93,0.00,,,0.00,Wunderground v.1.15,2013-07-23 04:00:00,
2013-07-23 00:06:00,68.2,66.1,29.51,ESE,111,0.0,0.0,93,0.00,,,0.00,Wunderground v.1.15,2013-07-23 04:06:00,
2013-07-23 00:10:00,68.0,65.9,29.51,ESE,111,0.0,0.0,93,0.00,,,0.01,Wunderground v.1.15,2013-07-23 04:10:00,
2013-07-23 00:15:00,68.0,66.2,29.51,ESE,111,0.0,0.0,94,0.00,,,0.01,Wunderground v.1.15,2013-07-23 04:15:00,
2013-07-23 00:20:00,67.9,66.1,29.50,ESE,111,0.0,0.0,94,0.00,,,0.01,Wunderground v.1.15,2013-07-23 04:20:00,
2013-07-23 00:25:00,67.7,65.9,29.50,ESE,111,0.0,1.0,94,0.00,,,0.01,Wunderground v.1.15,2013-07-23 04:25:00,
2013-07-23 00:35:00,67.5,65.7,29.50,ESE,111,0.0,1.0,94,0.00,,,0.01,Wunderground v.1.15,2013-07-23 04:35:00,
2013-07-23 00:45:00,67.4,65.6,29.50,ESE,111,0.0,0.0,94,0.00,,,0.01,Wunderground v.1.15,2013-07-23 04:45:00,
2013-07-23 00:50:00,67.5,65.7,29.50,ESE,111,0.0,0.0,94,0.00,,,0.01,Wunderground v.1.15,2013-07-23 04:50:00,
2013-07-23 01:00:00,67.5,65.7,29.49,ESE,111,0.0,0.0,94,0.00,,,0.01,Wunderground v.1.15,2013-07-23 05:00:00,
2013-07-23 01:06:00,67.5,65.7,29.49,ESE,111,0.0,0.0,94,0.00,,,0.01,Wunderground v.1.15,2013-07-23 05:06:00,
2013-07-23 01:15:00,67.5,65.7,29.49,ESE,111,0.0,0.0,94,0.00,,,0.01,Wunderground v.1.15,2013-07-23 05:15:00,
2013-07-23 01:20:00,67.5,65.7,29.49,ESE,111,0.0,0.0,94,0.00,,,0.01,Wunderground v.1.15,2013-07-23 05:20:00,
2013-07-23 01:30:00,67.6,66.1,29.49,ESE,111,0.0,0.0,95,0.00,,,0.01,Wunderground v.1.15,2013-07-23 05:30:00,
2013-07-23 01:45:00,67.6,66.1,29.49,ESE,111,0.0,0.0,95,0.00,,,0.01,Wunderground v.1.15,2013-07-23 05:45:00,
2013-07-23 01:50:00,67.5,66.0,29.49,ESE,111,0.0,0.0,95,0.00,,,0.01,Wunderground v.1.15,2013-07-23 05:50:00,
2013-07-23 01:55:00,67.5,66.0,29.48,ESE,111,0.0,0.0,95,0.00,,,0.01,Wunderground v.1.15,2013-07-23 05:55:00,
2013-07-23 02:06:00,67.5,66.0,29.48,ESE,111,0.0,0.0,95,0.00,,,0.01,Wunderground v.1.15,2013-07-23 06:06:00,
2013-07-23 02:15:00,67.5,66.3,29.48,ESE,111,0.0,0.0,96,0.00,,,0.01,Wunderground v.1.15,2013-07-23 06:15:00,
2013-07-23 02:25:00,67.5,66.3,29.47,ESE,111,0.0,0.0,96,0.00,,,0.01,Wunderground v.1.15,2013-07-23 06:25:00,
2013-07-23 02:30:00,67.5,66.3,29.47,ESE,111,0.0,0.0,96,0.00,,,0.01,Wunderground v.1.15,2013-07-23 06:30:00,
2013-07-23 02:40:00,67.5,66.3,29.47,ESE,111,0.0,0.0,96,0.00,,,0.01,Wunderground v.1.15,2013-07-23 06:40:00,
2013-07-23 02:50:00,67.5,66.3,29.47,ESE,111,0.0,0.0,96,0.00,,,0.01,Wunderground v.1.15,2013-07-23 06:50:00,
2013-07-23 03:00:00,67.6,66.4,29.47,ESE,111,0.0,0.0,96,0.00,,,0.01,Wunderground v.1.15,2013-07-23 07:00:00,
2013-07-23 03:06:00,67.6,66.4,29.46,ESE,111,0.0,0.0,96,0.00,,,0.01,Wunderground v.1.15,2013-07-23 07:06:00,
2013-07-23 03:15:00,67.4,66.2,29.46,ESE,111,0.0,0.0,96,0.00,,,0.01,Wunderground v.1.15,2013-07-23 07:15:00,
2013-07-23 03:20:00,67.4,66.2,29.46,ESE,111,0.0,0.0,96,0.00,,,0.01,Wunderground v.1.15,2013-07-23 07:20:00,
2013-07-23 03:30:00,67.2,66.0,29.46,ESE,111,0.0,0.0,96,0.00,,,0.01,Wunderground v.1.15,2013-07-23 07:30:00,
2013-07-23 03:40:00,67.1,65.9,29.46,ESE,111,0.0,0.0,96,0.00,,,0.01,Wunderground v.1.15,2013-07-23 07:40:00,
2013-07-23 03:45:00,67.2,66.3,29.46,ESE,111,0.0,0.0,97,0.00,,,0.01,Wunderground v.1.15,2013-07-23 07:45:00,
2013-07-23 03:55:00,67.2,66.3,29.46,ESE,111,0.0,0.0,97,0.00,,,0.01,Wunderground v.1.15,2013-07-23 07:55:00,
2013-07-23 04:06:00,67.1,66.2,29.46,ESE,111,0.0,0.0,97,0.00,,,0.01,Wunderground v.1.15,2013-07-23 08:06:00,
2013-07-23 04:15:00,67.0,66.1,29.45,ESE,111,0.0,0.0,97,0.00,,,0.01,Wunderground v.1.15,2013-07-23 08:15:00,
2013-07-23 04:25:00,66.6,65.7,29.45,ESE,111,0.0,0.0,97,0.00,,,0.01,Wunderground v.1.15,2013-07-23 08:25:00,
2013-07-23 04:35:00,66.4,65.5,29.45,ESE,111,0.0,0.0,97,0.00,,,0.01,Wunderground v.1.15,2013-07-23 08:35:00,
2013-07-23 04:40:00,66.2,65.3,29.44,ESE,111,0.0,0.0,97,0.00,,,0.01,Wunderground v.1.15,2013-07-23 08:40:00,
2013-07-23 04:45:00,66.1,65.2,29.44,ESE,111,0.0,0.0,97,0.00,,,0.01,Wunderground v.1.15,2013-07-23 08:45:00,
2013-07-23 04:55:00,65.9,65.0,29.44,ESE,111,0.0,0.0,97,0.00,,,0.01,Wunderground v.1.15,2013-07-23 08:55:00,
2013-07-23 05:06:00,65.8,64.9,29.45,ESE,111,0.0,0.0,97,0.00,,,0.01,Wunderground v.1.15,2013-07-23 09:06:00,
2013-07-23 05:15:00,65.7,64.8,29.45,ESE,111,0.0,0.0,97,0.00,,,0.01,Wunderground v.1.15,2013-07-23 09:15:00,
2013-07-23 05:20:00,65.6,64.7,29.45,ESE,111,0.0,0.0,97,0.00,,,0.01,Wunderground v.1.15,2013-07-23 09:20:00,
2013-07-23 05:30:00,65.5,64.6,29.44,ESE,111,0.0,0.0,97,0.00,,,0.01,Wunderground v.1.15,2013-07-23 09:30:00,
2013-07-23 05:35:00,65.4,64.5,29.45,ESE,111,0.0,0.0,97,0.00,,,0.01,Wunderground v.1.15,2013-07-23 09:35:00,
2013-07-23 05:45:00,65.4,64.5,29.44,ESE,111,0.0,0.0,97,0.00,,,0.01,Wunderground v.1.15,2013-07-23 09:45:00,
2013-07-23 05:50:00,65.3,64.4,29.44,ESE,111,0.0,0.0,97,0.00,,,0.01,Wunderground v.1.15,2013-07-23 09:50:00,
2013-07-23 06:00:00,65.0,64.1,29.44,ESE,111,0.0,0.0,97,0.00,,,0.01,Wunderground v.1.15,2013-07-23 10:00:00,
2013-07-23 06:06:00,64.8,63.9,29.44,ESE,111,0.0,0.0,97,0.00,,,0.01,Wunderground v.1.15,2013-07-23 10:06:00,
2013-07-23 06:15:00,64.7,63.8,29.44,ESE,111,0.0,0.0,97,0.00,,,0.01,Wunderground v.1.15,2013-07-23 10:15:00,
2013-07-23 06:20:00,64.6,63.7,29.44,ESE,111,0.0,0.0,97,0.00,,,0.01,Wunderground v.1.15,2013-07-23 10:20:00,
2013-07-23 06:30:00,64.4,63.5,29.44,ESE,111,0.0,0.0,97,0.00,,,0.01,Wunderground v.1.15,2013-07-23 10:30:00,
2013-07-23 06:35:00,64.3,63.4,29.44,ESE,111,0.0,0.0,97,0.00,,,0.01,Wunderground v.1.15,2013-07-23 10:35:00,
2013-07-23 06:45:00,64.6,64.0,29.44,ESE,111,0.0,1.0,98,0.00,,,0.01,Wunderground v.1.15,2013-07-23 10:45:00,
2013-07-23 06:50:00,65.1,64.5,29.44,ESE,111,0.0,0.0,98,0.00,,,0.01,Wunderground v.1.15,2013-07-23 10:50:00,
2013-07-23 07:00:00,66.2,65.9,29.44,ESE,111,0.0,0.0,99,0.00,,,0.01,Wunderground v.1.15,2013-07-23 11:00:00,
2013-07-23 07:06:00,66.6,66.0,29.44,ESE,111,0.0,0.0,98,0.00,,,0.01,Wunderground v.1.15,2013-07-23 11:06:00,
2013-07-23 07:15:00,66.8,66.2,29.44,ESE,111,0.0,1.0,98,0.00,,,0.01,Wunderground v.1.15,2013-07-23 11:15:00,
2013-07-23 07:25:00,67.3,66.7,29.44,ESE,111,1.0,2.0,98,0.00,,,0.01,Wunderground v.1.15,2013-07-23 11:25:00,
2013-07-23 07:30:00,67.7,67.1,29.44,ESE,111,1.0,1.0,98,0.00,,,0.01,Wunderground v.1.15,2013-07-23 11:30:00,
2013-07-23 07:40:00,68.6,68.0,29.44,South,179,0.0,2.0,98,0.00,,,0.01,Wunderground v.1.15,2013-07-23 11:40:00,
2013-07-23 07:50:00,69.3,68.4,29.43,South,179,2.0,3.0,97,0.00,,,0.01,Wunderground v.1.15,2013-07-23 11:50:00,
2013-07-23 08:00:00,70.1,68.6,29.43,South,181,2.0,2.0,95,0.00,,,0.01,Wunderground v.1.15,2013-07-23 12:00:00,
2013-07-23 08:06:00,70.7,69.2,29.43,South,181,1.0,2.0,95,0.00,,,0.01,Wunderground v.1.15,2013-07-23 12:06:00,
2013-07-23 08:15:00,71.6,69.5,29.43,South,181,1.0,1.0,93,0.00,,,0.01,Wunderground v.1.15,2013-07-23 12:15:00,
2013-07-23 08:20:00,72.2,70.1,29.43,SSW,208,1.0,4.0,93,0.00,,,0.01,Wunderground v.1.15,2013-07-23 12:20:00,
2013-07-23 08:30:00,73.0,70.5,29.43,SW,219,2.0,2.0,92,0.00,,,0.01,Wunderground v.1.15,2013-07-23 12:30:00,
2013-07-23 08:40:00,73.7,70.9,29.42,WSW,257,1.0,2.0,91,0.00,,,0.01,Wunderground v.1.15,2013-07-23 12:40:00,
2013-07-23 08:45:00,73.8,70.7,29.42,WSW,258,1.0,2.0,90,0.00,,,0.01,Wunderground v.1.15,2013-07-23 12:45:00,
2013-07-23 08:55:00,74.1,71.0,29.42,West,268,2.0,2.0,90,0.00,,,0.01,Wunderground v.1.15,2013-07-23 12:55:00,
2013-07-23 09:06:00,75.0,71.5,29.42,SW,221,1.0,2.0,89,0.00,,,0.01,Wunderground v.1.15,2013-07-23 13:06:00,
2013-07-23 09:15:00,75.3,71.2,29.42,West,273,2.0,4.0,87,0.00,,,0.01,Wunderground v.1.15,2013-07-23 13:15:00,
2013-07-23 09:25:00,75.8,71.3,29.42,West,273,2.0,4.0,86,0.00,,,0.01,Wunderground v.1.15,2013-07-23 13:25:00,
2013-07-23 09:35:00,76.3,71.5,29.42,WNW,298,2.0,4.0,85,0.00,,,0.01,Wunderground v.1.15,2013-07-23 13:35:00,
2013-07-23 09:40:00,76.6,71.0,29.42,SSW,194,2.0,3.0,83,0.00,,,0.01,Wunderground v.1.15,2013-07-23 13:40:00,
2013-07-23 09:50:00,77.2,71.3,29.42,SW,224,2.0,2.0,82,0.00,,,0.01,Wunderground v.1.15,2013-07-23 13:50:00,
2013-07-23 09:55:00,77.6,71.7,29.42,West,259,1.0,2.0,82,0.00,,,0.01,Wunderground v.1.15,2013-07-23 13:55:00,
2013-07-23 10:06:00,77.9,72.0,29.42,South,188,2.0,3.0,82,0.00,,,0.01,Wunderground v.1.15,2013-07-23 14:06:00,
2013-07-23 10:15:00,78.3,72.3,29.43,WNW,293,1.0,2.0,82,0.00,,,0.01,Wunderground v.1.15,2013-07-23 14:15:00,
2013-07-23 10:25:00,78.4,72.8,29.42,West,276,2.0,2.0,83,0.00,,,0.01,Wunderground v.1.15,2013-07-23 14:25:00,
2013-07-23 10:35:00,78.4,72.1,29.43,West,261,2.0,4.0,81,0.00,,,0.01,Wunderground v.1.15,2013-07-23 14:35:00,
2013-07-23 10:45:00,79.1,72.4,29.42,West,267,1.0,2.0,80,0.00,,,0.01,Wunderground v.1.15,2013-07-23 14:45:00,
2013-07-23 10:55:00,79.9,71.7,29.41,SSW,210,1.0,2.0,76,0.00,,,0.01,Wunderground v.1.15,2013-07-23 14:55:00,
2013-07-23 11:06:00,79.6,71.4,29.42,West,263,2.0,2.0,76,0.00,,,0.01,Wunderground v.1.15,2013-07-23 15:06:00,
2013-07-23 11:15:00,80.1,72.2,29.42,West,266,2.0,3.0,77,0.00,,,0.01,Wunderground v.1.15,2013-07-23 15:15:00,
2013-07-23 11:20:00,80.2,71.6,29.42,NW,321,2.0,2.0,75,0.00,,,0.01,Wunderground v.1.15,2013-07-23 15:20:00,
2013-07-23 11:30:00,80.6,71.5,29.41,West,271,2.0,3.0,74,0.00,,,0.01,Wunderground v.1.15,2013-07-23 15:30:00,
2013-07-23 11:35:00,80.7,71.6,29.41,WSW,257,2.0,4.0,74,0.00,,,0.01,Wunderground v.1.15,2013-07-23 15:35:00,
2013-07-23 11:45:00,81.0,70.3,29.41,West,259,1.0,2.0,70,0.00,,,0.01,Wunderground v.1.15,2013-07-23 15:45:00,
2013-07-23 11:50:00,81.5,71.6,29.41,West,259,1.0,1.0,72,0.00,,,0.01,Wunderground v.1.15,2013-07-23 15:50:00,
2013-07-23 11:55:00,81.5,71.2,29.41,WNW,284,1.0,2.0,71,0.00,,,0.01,Wunderground v.1.15,2013-07-23 15:55:00,
2013-07-23 12:00:00,81.3,70.6,29.41,SSW,205,3.0,3.0,70,0.00,,,0.01,Wunderground v.1.15,2013-07-23 16:00:00,
2013-07-23 12:06:00,81.3,70.2,29.40,WSW,242,3.0,3.0,69,0.00,,,0.01,Wunderground v.1.15,2013-07-23 16:06:00,
2013-07-23 12:15:00,81.5,71.6,29.40,WSW,244,3.0,3.0,72,0.00,,,0.01,Wunderground v.1.15,2013-07-23 16:15:00,
2013-07-23 12:25:00,81.6,70.9,29.40,SSW,200,2.0,6.0,70,0.00,,,0.01,Wunderground v.1.15,2013-07-23 16:25:00,
2013-07-23 12:30:00,81.8,71.1,29.40,West,262,2.0,2.0,70,0.00,,,0.01,Wunderground v.1.15,2013-07-23 16:30:00,
2013-07-23 12:40:00,82.3,70.7,29.40,SSW,207,2.0,6.0,68,0.00,,,0.01,Wunderground v.1.15,2013-07-23 16:40:00,
2013-07-23 12:45:00,82.1,70.5,29.39,SSW,211,4.0,6.0,68,0.00,,,0.01,Wunderground v.1.15,2013-07-23 16:45:00,
2013-07-23 12:55:00,82.5,70.9,29.39,SSW,199,3.0,5.0,68,0.00,,,0.01,Wunderground v.1.15,2013-07-23 16:55:00,
2013-07-23 13:06:00,83.2,70.7,29.38,WNW,284,2.0,5.0,66,0.00,,,0.01,Wunderground v.1.15,2013-07-23 17:06:00,
2013-07-23 13:15:00,83.0,70.9,29.37,WSW,248,3.0,3.0,67,0.00,,,0.01,Wunderground v.1.15,2013-07-23 17:15:00,
2013-07-23 13:25:00,82.9,70.8,29.37,SW,221,5.0,5.0,67,0.00,,,0.01,Wunderground v.1.15,2013-07-23 17:25:00,
2013-07-23 13:35:00,83.1,69.7,29.37,WSW,255,4.0,5.0,64,0.00,,,0.01,Wunderground v.1.15,2013-07-23 17:35:00,
2013-07-23 13:45:00,83.1,69.2,29.37,SSW,195,5.0,6.0,63,0.00,,,0.01,Wunderground v.1.15,2013-07-23 17:45:00,
2013-07-23 13:55:00,83.1,71.0,29.37,SSW,205,4.0,5.0,67,0.00,,,0.01,Wunderground v.1.15,2013-07-23 17:55:00,
2013-07-23 14:10:00,82.9,70.4,29.36,SW,217,7.0,7.0,66,0.00,,,0.01,Wunderground v.1.15,2013-07-23 18:10:00,
2013-07-23 14:15:00,83.0,69.1,29.37,SW,220,6.0,13.0,63,0.00,,,0.01,Wunderground v.1.15,2013-07-23 18:15:00,
2013-07-23 14:25:00,83.3,69.8,29.36,West,265,5.0,5.0,64,0.00,,,0.01,Wunderground v.1.15,2013-07-23 18:25:00,
2013-07-23 14:30:00,83.6,70.1,29.36,West,274,3.0,3.0,64,0.00,,,0.01,Wunderground v.1.15,2013-07-23 18:30:00,
2013-07-23 14:40:00,82.7,70.6,29.36,WSW,238,6.0,6.0,67,0.00,,,0.01,Wunderground v.1.15,2013-07-23 18:40:00,
2013-07-23 14:45:00,81.9,70.3,29.36,SW,224,7.0,7.0,68,0.00,,,0.01,Wunderground v.1.15,2013-07-23 18:45:00,
2013-07-23 14:55:00,81.9,71.6,29.36,SSW,208,6.0,10.0,71,0.00,,,0.01,Wunderground v.1.15,2013-07-23 18:55:00,
2013-07-23 15:06:00,83.3,71.6,29.36,WSW,252,5.0,8.0,68,0.00,,,0.01,Wunderground v.1.15,2013-07-23 19:06:00,
2013-07-23 15:15:00,83.3,70.8,29.36,WSW,249,4.0,4.0,66,0.00,,,0.01,Wunderground v.1.15,2013-07-23 19:15:00,
2013-07-23 15:30:00,83.0,71.3,29.35,WSW,241,5.0,5.0,68,0.00,,,0.01,Wunderground v.1.15,2013-07-23 19:30:00,
2013-07-23 15:35:00,82.4,70.3,29.35,SW,233,5.0,5.0,67,0.00,,,0.01,Wunderground v.1.15,2013-07-23 19:35:00,
2013-07-23 15:45:00,82.5,71.3,29.35,SW,223,4.0,5.0,69,0.00,,,0.01,Wunderground v.1.15,2013-07-23 19:45:00,
2013-07-23 15:55:00,81.4,71.9,29.35,SW,230,4.0,9.0,73,0.00,,,0.01,Wunderground v.1.15,2013-07-23 19:55:00,
2013-07-23 16:06:00,80.2,71.9,29.35,SW,220,4.0,5.0,76,0.00,,,0.01,Wunderground v.1.15,2013-07-23 20:06:00,
2013-07-23 16:15:00,80.3,72.8,29.35,SSE,167,3.0,5.0,78,0.00,,,0.01,Wunderground v.1.15,2013-07-23 20:15:00,
2013-07-23 16:30:00,80.5,72.2,29.35,WSW,240,2.0,2.0,76,0.00,,,0.01,Wunderground v.1.15,2013-07-23 20:30:00,
2013-07-23 16:35:00,80.2,72.3,29.35,NNW,332,2.0,2.0,77,0.00,,,0.01,Wunderground v.1.15,2013-07-23 20:35:00,
2013-07-23 16:45:00,79.7,71.8,29.35,WSW,255,3.0,3.0,77,0.00,,,0.01,Wunderground v.1.15,2013-07-23 20:45:00,
2013-07-23 16:50:00,79.8,72.3,29.35,SW,217,2.0,2.0,78,0.00,,,0.01,Wunderground v.1.15,2013-07-23 20:50:00,
2013-07-23 17:00:00,79.8,72.7,29.36,WNW,299,3.0,3.0,79,0.00,,,0.01,Wunderground v.1.15,2013-07-23 21:00:00,
2013-07-23 17:06:00,79.7,72.2,29.36,West,259,2.0,3.0,78,0.00,,,0.01,Wunderground v.1.15,2013-07-23 21:06:00,
2013-07-23 17:15:00,79.7,72.2,29.36,WSW,256,2.0,4.0,78,0.00,,,0.01,Wunderground v.1.15,2013-07-23 21:15:00,
2013-07-23 17:25:00,79.8,72.3,29.35,WSW,253,2.0,5.0,78,0.00,,,0.01,Wunderground v.1.15,2013-07-23 21:25:00,
2013-07-23 17:30:00,79.8,71.9,29.35,West,263,2.0,4.0,77,0.00,,,0.01,Wunderground v.1.15,2013-07-23 21:30:00,
2013-07-23 17:40:00,80.0,72.1,29.35,WSW,257,2.0,2.0,77,0.00,,,0.01,Wunderground v.1.15,2013-07-23 21:40:00,
2013-07-23 18:00:00,80.0,71.4,29.35,SW,225,1.0,1.0,75,0.00,,,0.01,Wunderground v.1.15,2013-07-23 22:00:00,
2013-07-23 18:06:00,79.8,70.8,29.35,SSW,192,1.0,1.0,74,0.00,,,0.01,Wunderground v.1.15,2013-07-23 22:06:00,
2013-07-23 18:15:00,78.9,69.9,29.35,WNW,287,2.0,3.0,74,0.00,,,0.01,Wunderground v.1.15,2013-07-23 22:15:00,
2013-07-23 18:20:00,78.5,69.5,29.35,West,275,2.0,2.0,74,0.00,,,0.01,Wunderground v.1.15,2013-07-23 22:20:00,
2013-07-23 18:30:00,78.0,69.8,29.35,NW,313,1.0,2.0,76,0.00,,,0.01,Wunderground v.1.15,2013-07-23 22:30:00,
2013-07-23 18:40:00,77.9,70.5,29.35,NW,313,0.0,0.0,78,0.00,,,0.01,Wunderground v.1.15,2013-07-23 22:40:00,
2013-07-23 18:50:00,77.7,69.9,29.35,NW,306,0.0,1.0,77,0.00,,,0.01,Wunderground v.1.15,2013-07-23 22:50:00,
2013-07-23 19:00:00,77.6,70.2,29.35,NW,306,0.0,0.0,78,0.00,,,0.01,Wunderground v.1.15,2013-07-23 23:00:00,
2013-07-23 19:06:00,77.4,70.0,29.35,NW,306,0.0,0.0,78,0.00,,,0.01,Wunderground v.1.15,2013-07-23 23:06:00,
2013-07-23 19:15:00,77.2,70.2,29.35,South,175,1.0,1.0,79,0.00,,,0.01,Wunderground v.1.15,2013-07-23 23:15:00,
2013-07-23 19:25:00,77.1,70.1,29.35,SSW,210,1.0,2.0,79,0.00,,,0.01,Wunderground v.1.15,2013-07-23 23:25:00,
2013-07-23 19:30:00,77.1,70.1,29.35,SSW,210,1.0,1.0,79,0.00,,,0.01,Wunderground v.1.15,2013-07-23 23:30:00,
2013-07-23 19:35:00,77.1,70.1,29.35,SSW,212,1.0,1.0,79,0.00,,,0.01,Wunderground v.1.15,2013-07-23 23:35:00,
2013-07-23 19:50:00,75.5,68.5,29.36,North,11,3.0,4.0,79,0.00,,,0.01,Wunderground v.1.15,2013-07-23 23:50:00,
2013-07-23 19:55:00,74.4,67.8,29.36,West,261,4.0,4.0,80,0.00,,,0.01,Wunderground v.1.15,2013-07-23 23:55:00,
2013-07-23 20:06:00,72.7,66.9,29.36,ENE,62,3.0,4.0,82,0.00,,,0.01,Wunderground v.1.15,2013-07-24 00:06:00,
2013-07-23 20:15:00,71.6,65.8,29.37,NNE,32,2.0,4.0,82,0.00,,,0.01,Wunderground v.1.15,2013-07-24 00:15:00,
2013-07-23 20:35:00,69.7,64.0,29.38,WSW,248,3.0,3.0,82,0.00,,,0.01,Wunderground v.1.15,2013-07-24 00:35:00,
2013-07-23 20:45:00,69.4,62.2,29.39,South,175,3.0,5.0,78,0.00,,,0.01,Wunderground v.1.15,2013-07-24 00:45:00,
2013-07-23 20:55:00,69.2,60.9,29.39,West,259,3.0,3.0,75,0.00,,,0.01,Wunderground v.1.15,2013-07-24 00:55:00,
2013-07-23 21:15:00,69.0,60.4,29.41,South,173,4.0,6.0,74,0.00,,,0.01,Wunderground v.1.15,2013-07-24 01:15:00,
2013-07-23 21:25:00,68.8,60.9,29.41,SW,219,2.0,4.0,76,0.00,,,0.01,Wunderground v.1.15,2013-07-24 01:25:00,
2013-07-23 21:35:00,68.5,61.0,29.42,SSE,161,2.0,2.0,77,0.00,,,0.01,Wunderground v.1.15,2013-07-24 01:35:00,
2013-07-23 21:40:00,68.4,61.3,29.42,WSW,244,2.0,2.0,78,0.00,,,0.01,Wunderground v.1.15,2013-07-24 01:40:00,
2013-07-23 21:45:00,68.4,60.9,29.42,West,281,2.0,2.0,77,0.00,,,0.01,Wunderground v.1.15,2013-07-24 01:45:00,
2013-07-23 22:00:00,68.3,60.4,29.42,West,271,3.0,3.0,76,0.00,,,0.01,Wunderground v.1.15,2013-07-24 02:00:00,
2013-07-23 22:10:00,67.7,60.6,29.42,West,280,2.0,4.0,78,0.00,,,0.01,Wunderground v.1.15,2013-07-24 02:10:00,
2013-07-23 22:20:00,67.1,60.4,29.42,WNW,284,2.0,5.0,79,0.00,,,0.01,Wunderground v.1.15,2013-07-24 02:20:00,
2013-07-23 22:25:00,66.9,60.2,29.42,West,259,2.0,5.0,79,0.00,,,0.01,Wunderground v.1.15,2013-07-24 02:25:00,
2013-07-23 22:35:00,66.6,60.2,29.42,West,273,2.0,4.0,80,0.00,,,0.01,Wunderground v.1.15,2013-07-24 02:35:00,
2013-07-23 22:45:00,66.4,60.0,29.43,West,261,2.0,2.0,80,0.00,,,0.01,Wunderground v.1.15,2013-07-24 02:45:00,
2013-07-23 22:55:00,66.6,60.2,29.43,WSW,242,1.0,2.0,80,0.00,,,0.01,Wunderground v.1.15,2013-07-24 02:55:00,
2013-07-23 23:10:00,66.5,60.1,29.43,West,273,1.0,3.0,80,0.00,,,0.01,Wunderground v.1.15,2013-07-24 03:10:00,
2013-07-23 23:20:00,67.0,60.3,29.44,WNW,285,2.0,2.0,79,0.00,,,0.01,Wunderground v.1.15,2013-07-24 03:20:00,
2013-07-23 23:30:00,67.2,59.7,29.44,West,266,2.0,6.0,77,0.00,,,0.01,Wunderground v.1.15,2013-07-24 03:30:00,
2013-07-23 23:40:00,67.2,59.4,29.44,SSW,194,3.0,3.0,76,0.00,,,0.01,Wunderground v.1.15,2013-07-24 03:40:00,
2013-07-23 23:50:00,66.7,59.3,29.45,West,271,3.0,3.0,77,0.00,,,0.01,Wunderground v.1.15,2013-07-24 03:50:00,
2013-07-23 23:55:00,66.5,59.1,29.44,West,268,2.0,4.0,77,0.00,,,0.01,Wunderground v.1.15,2013-07-24 03:55:00,